| time (UTC) | temp C | wind direction | speed KPH | gust KPH | rain 1hr cm | rain 24hr cm | rain mn cm | humidity % | barometer mb |
| 20260508080054 | 0 | 0 | 0.0 | 0.0 | 0.00 | 0.00 | 0.00 | 91 | 1010.5 |
| 20260508074555 | 0 | 277 | 1.6 | 1.6 | 0.00 | 0.00 | 0.00 | 90 | 1010.6 |
| 20260508073058 | 1 | 271 | 0.0 | 1.6 | 0.00 | 0.00 | 0.00 | 92 | 1010.7 |
| 20260508071554 | 1 | 277 | 0.0 | 1.6 | 0.00 | 0.00 | 0.00 | 90 | 1010.8 |
| 20260508070054 | 1 | 0 | 0.0 | 1.6 | 0.00 | 0.00 | 0.00 | 89 | 1010.8 |
| 20260508064556 | 1 | 264 | 0.0 | 1.6 | 0.00 | 0.00 | 0.00 | 87 | 1011.0 |
| 20260508063055 | 1 | 0 | 0.0 | 1.6 | 0.00 | 0.00 | 0.00 | 87 | 1011.1 |
| 20260508061606 | 1 | 0 | 0.0 | 1.6 | 0.00 | 0.00 | 0.00 | 86 | 1011.3 |
| 20260508060057 | 2 | 263 | 0.0 | 1.6 | 0.00 | 0.00 | 0.00 | 86 | 1011.5 |
| 20260508054635 | 2 | 0 | 0.0 | 1.6 | 0.00 | 0.00 | 0.00 | 84 | 1011.3 |
| 20260508053052 | 2 | 0 | 0.0 | 1.6 | 0.00 | 0.00 | 0.00 | 83 | 1011.4 |
| 20260508051552 | 2 | 0 | 0.0 | 1.6 | 0.00 | 0.00 | 0.00 | 83 | 1011.4 |
| 20260508050057 | 2 | 0 | 0.0 | 1.6 | 0.00 | 0.00 | 0.00 | 83 | 1011.3 |
| 20260508044559 | 3 | 0 | 0.0 | 1.6 | 0.00 | 0.00 | 0.00 | 81 | 1011.2 |
| 20260508043052 | 3 | 0 | 0.0 | 0.0 | 0.00 | 0.00 | 0.00 | 80 | 1011.0 |
| 20260508041559 | 3 | 0 | 0.0 | 0.0 | 0.00 | 0.00 | 0.00 | 80 | 1010.9 |
| 20260508040058 | 4 | 0 | 0.0 | 0.0 | 0.00 | 0.00 | 0.00 | 77 | 1010.8 |
| 20260508034600 | 5 | 0 | 0.0 | 1.6 | 0.00 | 0.00 | 0.00 | 75 | 1010.6 |
| 20260508033052 | 5 | 45 | 3.2 | 4.8 | 0.00 | 0.00 | 0.00 | 76 | 1010.7 |
| 20260508031600 | 5 | 112 | 1.6 | 6.4 | 0.00 | 0.00 | 0.00 | 75 | 1010.4 |
| 20260508030112 | 5 | 75 | 1.6 | 8.0 | 0.00 | 0.00 | 0.00 | 73 | 1010.3 |
| 20260508024605 | 6 | 97 | 4.8 | 9.7 | 0.00 | 0.00 | 0.00 | 71 | 1010.3 |
| 20260508023055 | 6 | 94 | 6.4 | 11.3 | 0.00 | 0.00 | 0.00 | 71 | 1010.3 |
| 20260508021614 | 7 | 83 | 4.8 | 12.9 | 0.00 | 0.00 | 0.00 | 71 | 1010.1 |
| 20260508020054 | 7 | 103 | 6.4 | 14.5 | 0.00 | 0.00 | 0.00 | 71 | 1009.9 |
| 20260508014602 | 8 | 72 | 6.4 | 11.3 | 0.00 | 0.00 | 0.00 | 68 | 1009.7 |
| 20260508013106 | 8 | 49 | 3.2 | 8.0 | 0.00 | 0.00 | 0.00 | 67 | 1009.4 |
| 20260508011601 | 8 | 75 | 8.0 | 14.5 | 0.00 | 0.00 | 0.00 | 65 | 1009.3 |
| 20260508010057 | 9 | 68 | 6.4 | 9.7 | 0.00 | 0.00 | 0.00 | 66 | 1009.2 |
| 20260508004558 | 10 | 69 | 4.8 | 11.3 | 0.00 | 0.00 | 0.00 | 64 | 1008.9 |
| 20260508003103 | 10 | 63 | 11.3 | 17.7 | 0.00 | 0.00 | 0.00 | 64 | 1008.6 |
| 20260508001554 | 10 | 88 | 12.9 | 17.7 | 0.00 | 0.00 | 0.00 | 64 | 1008.6 |
| 20260508000053 | 10 | 87 | 14.5 | 25.7 | 0.00 | 0.00 | 0.00 | 64 | 1008.6 |
| 20260507234553 | 11 | 103 | 11.3 | 16.1 | 0.00 | 0.00 | 0.00 | 60 | 1008.4 |
| 20260507233056 | 11 | 68 | 11.3 | 14.5 | 0.00 | 0.00 | 0.00 | 60 | 1008.4 |
| 20260507231557 | 11 | 43 | 8.0 | 17.7 | 0.00 | 0.00 | 0.00 | 57 | 1008.5 |
| 20260507230049 | 11 | 71 | 6.4 | 9.7 | 0.00 | 0.00 | 0.00 | 56 | 1008.3 |
| 20260507224601 | 10 | 86 | 9.7 | 17.7 | 0.00 | 0.00 | 0.00 | 57 | 1008.4 |
| 20260507223052 | 10 | 86 | 8.0 | 17.7 | 0.00 | 0.00 | 0.00 | 55 | 1008.4 |
| 20260507221556 | 10 | 75 | 6.4 | 16.1 | 0.00 | 0.00 | 0.00 | 56 | 1008.7 |
| 20260507220057 | 10 | 88 | 8.0 | 14.5 | 0.00 | 0.00 | 0.00 | 54 | 1008.7 |
| 20260507214558 | 10 | 70 | 11.3 | 16.1 | 0.00 | 0.00 | 0.00 | 55 | 1008.7 |
| 20260507213056 | 10 | 94 | 11.3 | 20.9 | 0.00 | 0.00 | 0.00 | 56 | 1008.7 |
| 20260507211554 | 10 | 108 | 16.1 | 27.4 | 0.00 | 0.00 | 0.00 | 53 | 1008.7 |
| 20260507210116 | 10 | 89 | 17.7 | 25.7 | 0.00 | 0.00 | 0.00 | 53 | 1008.9 |
| 20260507204600 | 11 | 82 | 22.5 | 30.6 | 0.00 | 0.00 | 0.00 | 51 | 1008.8 |
| 20260507203058 | 13 | 59 | 0.0 | 6.4 | 0.00 | 0.00 | 0.00 | 47 | 1008.8 |
| 20260507201554 | 12 | 0 | 1.6 | 11.3 | 0.00 | 0.00 | 0.00 | 47 | 1008.8 |
| 20260507200108 | 12 | 9 | 0.0 | 12.9 | 0.00 | 0.00 | 0.00 | 53 | 1009.2 |
| 20260507194557 | 12 | 235 | 1.6 | 9.7 | 0.00 | 0.00 | 0.00 | 48 | 1009.8 |
| 20260507193131 | 13 | 285 | 3.2 | 12.9 | 0.00 | 0.00 | 0.00 | 41 | 1009.4 |
| 20260507191600 | 14 | 249 | 4.8 | 12.9 | 0.00 | 0.00 | 0.00 | 36 | 1009.3 |
| 20260507190058 | 14 | 248 | 9.7 | 24.1 | 0.00 | 0.00 | 0.00 | 34 | 1009.1 |
| 20260507184558 | 14 | 245 | 11.3 | 25.7 | 0.00 | 0.00 | 0.00 | 35 | 1009.5 |
| 20260507183103 | 13 | 249 | 9.7 | 24.1 | 0.00 | 0.00 | 0.00 | 36 | 1009.7 |
| 20260507181556 | 13 | 221 | 3.2 | 19.3 | 0.00 | 0.00 | 0.00 | 37 | 1010.1 |
| 20260507180057 | 13 | 242 | 8.0 | 14.5 | 0.00 | 0.00 | 0.00 | 37 | 1010.3 |
| 20260507174608 | 12 | 240 | 6.4 | 14.5 | 0.00 | 0.00 | 0.00 | 38 | 1010.6 |
| 20260507173131 | 12 | 226 | 6.4 | 12.9 | 0.00 | 0.00 | 0.00 | 37 | 1010.8 |
| 20260507171601 | 13 | 262 | 4.8 | 17.7 | 0.00 | 0.00 | 0.00 | 36 | 1011.1 |
| 20260507170055 | 13 | 280 | 6.4 | 20.9 | 0.00 | 0.00 | 0.00 | 36 | 1011.4 |
| 20260507164605 | 13 | 131 | 1.6 | 9.7 | 0.00 | 0.00 | 0.00 | 40 | 1011.5 |
| 20260507163058 | 12 | 251 | 1.6 | 9.7 | 0.00 | 0.00 | 0.00 | 38 | 1011.8 |
| 20260507161616 | 12 | 174 | 3.2 | 9.7 | 0.00 | 0.00 | 0.00 | 40 | 1011.9 |
| 20260507160118 | 11 | 101 | 1.6 | 11.3 | 0.00 | 0.00 | 0.00 | 40 | 1012.2 |
| 20260507154600 | 10 | 77 | 1.6 | 8.0 | 0.00 | 0.00 | 0.00 | 44 | 1012.5 |
| 20260507153055 | 10 | 104 | 3.2 | 8.0 | 0.00 | 0.00 | 0.00 | 45 | 1012.7 |
| 20260507151553 | 10 | 256 | 1.6 | 12.9 | 0.00 | 0.00 | 0.00 | 45 | 1012.9 |
| 20260507150059 | 8 | 240 | 6.4 | 12.9 | 0.00 | 0.00 | 0.00 | 45 | 1013.2 |
| 20260507144600 | 8 | 261 | 3.2 | 8.0 | 0.00 | 0.00 | 0.00 | 46 | 1013.5 |
| 20260507143100 | 7 | 259 | 4.8 | 11.3 | 0.00 | 0.00 | 0.00 | 48 | 1013.7 |
| 20260507141605 | 7 | 264 | 1.6 | 11.3 | 0.00 | 0.00 | 0.00 | 51 | 1014.1 |
| 20260507140101 | 6 | 255 | 4.8 | 9.7 | 0.00 | 0.00 | 0.00 | 52 | 1014.3 |
| 20260507134603 | 6 | 232 | 6.4 | 9.7 | 0.00 | 0.00 | 0.00 | 53 | 1014.4 |
| 20260507133052 | 6 | 242 | 1.6 | 6.4 | 0.00 | 0.00 | 0.00 | 59 | 1014.4 |
| 20260507131556 | 5 | 252 | 3.2 | 6.4 | 0.00 | 0.00 | 0.00 | 63 | 1014.5 |
| 20260507130053 | 3 | 283 | 1.6 | 6.4 | 0.00 | 0.00 | 0.00 | 66 | 1014.5 |
| 20260507124554 | 3 | 240 | 3.2 | 8.0 | 0.00 | 0.00 | 0.00 | 70 | 1014.4 |
| 20260507123055 | 2 | 273 | 0.0 | 3.2 | 0.00 | 0.00 | 0.00 | 76 | 1014.3 |
| 20260507121557 | 1 | 0 | 0.0 | 0.0 | 0.00 | 0.00 | 0.00 | 81 | 1014.2 |
| 20260507120053 | 1 | 0 | 0.0 | 1.6 | 0.00 | 0.00 | 0.00 | 80 | 1014.0 |
| 20260507114559 | 0 | 266 | 0.0 | 1.6 | 0.00 | 0.00 | 0.00 | 82 | 1013.9 |
| 20260507113055 | 0 | 0 | 0.0 | 0.0 | 0.00 | 0.00 | 0.00 | 81 | 1013.8 |
| 20260507111559 | 0 | 0 | 0.0 | 4.8 | 0.00 | 0.00 | 0.00 | 79 | 1013.7 |
| 20260507110055 | 0 | 279 | 1.6 | 4.8 | 0.00 | 0.00 | 0.00 | 82 | 1013.6 |
| 20260507104554 | -1 | 0 | 0.0 | 0.0 | 0.00 | 0.00 | 0.00 | 85 | 1013.5 |
| 20260507103053 | -1 | 0 | 0.0 | 0.0 | 0.00 | 0.00 | 0.00 | 86 | 1013.5 |
| 20260507101611 | -1 | 0 | 0.0 | 0.0 | 0.00 | 0.00 | 0.00 | 88 | 1013.5 |
| 20260507100055 | -1 | 269 | 0.0 | 0.0 | 0.00 | 0.00 | 0.00 | 87 | 1013.5 |
| 20260507094556 | 0 | 0 | 0.0 | 0.0 | 0.00 | 0.00 | 0.00 | 86 | 1013.5 |
| 20260507093054 | 0 | 0 | 0.0 | 0.0 | 0.00 | 0.00 | 0.00 | 82 | 1013.5 |
| 20260507091551 | 0 | 0 | 0.0 | 0.0 | 0.00 | 0.00 | 0.00 | 82 | 1013.5 |
| 20260507090052 | 0 | 0 | 0.0 | 0.0 | 0.00 | 0.00 | 0.00 | 84 | 1013.5 |
| 20260507084553 | 0 | 0 | 0.0 | 0.0 | 0.00 | 0.00 | 0.00 | 80 | 1013.6 |
| 20260507083052 | 0 | 0 | 0.0 | 1.6 | 0.00 | 0.00 | 0.00 | 76 | 1013.6 |
| 20260507081551 | 0 | 0 | 0.0 | 0.0 | 0.00 | 0.00 | 0.00 | 74 | 1013.6 |